YO4ISC-13 Weather Reports


time (UTC)temp
F
wind
direction
speed
knots
gust
knots
rain 1hr
in
rain 24hr
in
rain mn
in
humidity
%
barometer
mb
20260902224001 65 310 1.7 1.7 0.00 0.00 0.00 86 1019.0
20260902223002 66 228 0.9 0.9 0.00 0.00 0.00 85 1019.0
20260902222002 66 298 0.0 0.0 0.00 0.00 0.00 85 1019.0
20260902221001 67 348 1.7 1.7 0.00 0.00 0.00 85 1019.0
20260902220002 67 4 0.9 1.7 0.00 0.00 0.00 85 1019.0
20260902215002 66 321 1.7 2.6 0.00 0.00 0.00 86 1019.0
20260902214001 67 302 1.7 1.7 0.00 0.00 0.00 86 1019.0
20260902213002 67 315 0.0 0.0 0.00 0.00 0.00 85 1018.0
20260902212002 68 309 0.0 0.0 0.00 0.00 0.00 83 1019.0
20260902211001 68 9 0.0 0.9 0.00 0.00 0.00 82 1019.0
20260902210002 68 337 1.7 2.6 0.00 0.00 0.00 83 1019.0
20260902205001 69 343 0.9 0.9 0.00 0.00 0.00 82 1018.0
20260902204001 69 330 1.7 1.7 0.00 0.00 0.00 82 1019.0
20260902203002 69 315 0.0 1.7 0.00 0.00 0.00 83 1019.0
20260902202001 69 255 0.9 0.9 0.00 0.00 0.00 82 1019.0
20260902201001 69 255 0.0 0.0 0.00 0.00 0.00 83 1019.0
20260902200002 69 55 0.0 0.0 0.00 0.00 0.00 84 1018.0
20260902195001 70 264 0.0 0.0 0.00 0.00 0.00 84 1018.0
20260902194001 70 164 0.0 0.0 0.00 0.00 0.00 84 1018.0
20260902193002 71 204 1.7 1.7 0.00 0.00 0.00 85 1018.0
20260902192002 71 194 1.7 1.7 0.00 0.00 0.00 85 1019.0
20260902191002 71 172 0.9 0.9 0.00 0.00 0.00 85 1019.0
20260902190002 71 195 0.0 0.0 0.00 0.00 0.00 83 1019.0
20260902185001 72 195 0.0 0.9 0.00 0.00 0.00 83 1019.0
20260902184002 72 203 1.7 1.7 0.00 0.00 0.00 82 1019.0
20260902183002 73 153 1.7 1.7 0.00 0.00 0.00 80 1019.0
20260902182001 73 193 1.7 1.7 0.00 0.00 0.00 80 1019.0
20260902181002 73 146 0.0 1.7 0.00 0.00 0.00 78 1019.0
20260902180003 73 136 1.7 1.7 0.00 0.00 0.00 76 1019.0
20260902175001 73 136 0.9 1.7 0.00 0.00 0.00 74 1019.0
20260902174002 73 162 1.7 1.7 0.00 0.00 0.00 76 1018.0
20260902173001 73 135 1.7 1.7 0.00 0.00 0.00 79 1018.0
20260902172001 73 137 0.0 1.7 0.00 0.00 0.00 80 1018.0
20260902171002 73 133 1.7 1.7 0.00 0.00 0.00 78 1018.0
20260902170001 74 129 0.0 1.7 0.00 0.00 0.00 77 1018.0
20260902165001 74 141 1.7 1.7 0.00 0.00 0.00 76 1018.0
20260902164002 75 150 1.7 2.6 0.00 0.00 0.00 75 1018.0
20260902163001 76 156 1.7 1.7 0.00 0.00 0.00 73 1018.0
20260902162002 76 164 1.7 1.7 0.00 0.00 0.00 72 1018.0
20260902161002 77 182 3.5 4.3 0.00 0.00 0.00 71 1018.0
20260902160001 77 215 1.7 1.7 0.00 0.00 0.00 71 1018.0
20260902155002 77 186 1.7 1.7 0.00 0.00 0.00 70 1018.0
20260902154002 78 170 2.6 3.5 0.00 0.00 0.00 71 1018.0
20260902153001 78 173 5.2 6.1 0.00 0.00 0.00 70 1018.0
20260902152002 78 183 4.3 6.1 0.00 0.00 0.00 68 1018.0
20260902151002 78 175 4.3 5.2 0.00 0.00 0.00 70 1018.0
20260902150001 79 173 4.3 4.3 0.00 0.00 0.00 68 1018.0
20260902145002 79 173 7.0 7.8 0.00 0.00 0.00 68 1018.0
20260902144001 78 153 1.7 5.2 0.00 0.00 0.00 66 1018.0
20260902143001 79 164 5.2 8.7 0.00 0.00 0.00 68 1018.0
20260902142002 79 160 6.1 7.8 0.00 0.00 0.00 63 1019.0
20260902141002 79 152 4.3 5.2 0.00 0.00 0.00 65 1019.0
20260902140001 79 157 5.2 5.2 0.00 0.00 0.00 66 1018.0
20260902135002 79 149 7.0 8.7 0.00 0.00 0.00 64 1019.0
20260902134001 79 142 5.2 5.2 0.00 0.00 0.00 66 1019.0
20260902133001 79 159 5.2 7.0 0.00 0.00 0.00 66 1019.0
20260902132002 79 141 4.3 7.8 0.00 0.00 0.00 65 1019.0
20260902131001 79 152 4.3 5.2 0.00 0.00 0.00 62 1019.0
20260902130001 80 131 2.6 5.2 0.00 0.00 0.00 63 1019.0
20260902125002 79 133 3.5 6.1 0.00 0.00 0.00 63 1019.0
20260902124001 79 128 6.1 7.8 0.00 0.00 0.00 63 1019.0
20260902123001 79 140 1.7 4.3 0.00 0.00 0.00 63 1019.0
20260902122002 79 137 7.8 9.6 0.00 0.00 0.00 61 1019.0
20260902121001 79 141 4.3 6.1 0.00 0.00 0.00 62 1019.0
20260902120002 79 158 4.3 6.1 0.00 0.00 0.00 63 1019.0
20260902115002 80 163 4.3 8.7 0.00 0.00 0.00 65 1019.0
20260902114001 80 132 7.0 7.8 0.00 0.00 0.00 66 1019.0
20260902113002 79 132 2.6 4.3 0.00 0.00 0.00 67 1020.0
20260902112002 80 116 1.7 5.2 0.00 0.00 0.00 66 1020.0
20260902111001 80 141 1.7 4.3 0.00 0.00 0.00 64 1020.0
20260902110002 80 141 7.0 7.0 0.00 0.00 0.00 64 1020.0
20260902105002 79 145 3.5 3.5 0.00 0.00 0.00 65 1020.0
20260902104001 79 117 5.2 6.1 0.00 0.00 0.00 62 1020.0
20260902103002 80 123 5.2 5.2 0.00 0.00 0.00 63 1020.0
20260902102001 79 148 3.5 5.2 0.00 0.00 0.00 61 1020.0
20260902101001 79 78 3.5 4.3 0.00 0.00 0.00 63 1020.0
20260902100002 79 143 1.7 3.5 0.00 0.00 0.00 65 1020.0
20260902095001 78 163 5.2 5.2 0.00 0.00 0.00 67 1020.0
20260902094001 78 154 4.3 5.2 0.00 0.00 0.00 67 1020.0
20260902093002 79 102 1.7 3.5 0.00 0.00 0.00 64 1020.0
20260902092001 79 116 5.2 5.2 0.00 0.00 0.00 67 1020.0
20260902091001 79 105 6.1 8.7 0.00 0.00 0.00 66 1020.0
20260902090002 79 96 2.6 5.2 0.00 0.00 0.00 62 1020.0
20260902085001 79 82 6.1 7.0 0.00 0.00 0.00 63 1021.0
20260902084001 78 86 4.3 5.2 0.00 0.00 0.00 62 1020.0
20260902083002 78 127 4.3 5.2 0.00 0.00 0.00 64 1020.0
20260902082001 78 45 4.3 5.2 0.00 0.00 0.00 61 1020.0
20260902081001 78 102 1.7 3.5 0.00 0.00 0.00 63 1020.0
20260902080002 78 91 1.7 2.6 0.00 0.00 0.00 66 1020.0
20260902075001 78 74 3.5 4.3 0.00 0.00 0.00 66 1020.0
20260902074002 77 42 2.6 3.5 0.00 0.00 0.00 68 1020.0
20260902073002 77 65 2.6 5.2 0.00 0.00 0.00 68 1020.0
20260902072001 77 68 2.6 5.2 0.00 0.00 0.00 65 1020.0
20260902071002 77 69 2.6 3.5 0.00 0.00 0.00 64 1020.0
20260902070002 76 74 2.6 2.6 0.00 0.00 0.00 65 1020.0
20260902065001 76 70 2.6 3.5 0.00 0.00 0.00 67 1020.0
20260902064002 76 91 4.3 7.0 0.00 0.00 0.00 69 1020.0
20260902063002 76 51 1.7 1.7 0.00 0.00 0.00 73 1020.0
20260902062001 74 29 1.7 1.7 0.00 0.00 0.00 74 1020.0
20260902061002 75 73 0.9 1.7 0.00 0.00 0.00 76 1020.0
20260902060001 74 45 2.6 4.3 0.00 0.00 0.00 79 1020.0
20260902055001 72 280 1.7 2.6 0.00 0.00 0.00 79 1020.0
20260902054002 71 309 1.7 2.6 0.00 0.00 0.00 79 1020.0
20260902053001 70 288 1.7 1.7 0.00 0.00 0.00 82 1020.0
20260902052001 69 243 1.7 2.6 0.00 0.00 0.00 85 1020.0
20260902051002 67 174 0.0 0.9 0.00 0.00 0.00 87 1020.0
20260902050002 65 272 1.7 1.7 0.00 0.00 0.00 89 1020.0
20260902045001 64 281 1.7 2.6 0.00 0.00 0.00 90 1020.0
20260902044002 63 286 1.7 2.6 0.00 0.00 0.00 90 1020.0
20260902043001 63 135 0.9 1.7 0.00 0.00 0.00 92 1020.0
20260902042001 62 306 0.0 1.7 0.00 0.00 0.00 93 1019.0
20260902041002 61 323 0.9 0.9 0.00 0.00 0.00 94 1019.0
20260902040001 60 291 0.0 0.0 0.00 0.00 0.00 94 1019.0
20260902035002 60 275 1.7 1.7 0.00 0.00 0.00 94 1019.0
20260902034002 60 187 0.9 0.9 0.00 0.00 0.00 94 1019.0
20260902033001 61 277 0.9 1.7 0.00 0.00 0.00 94 1019.0
20260902032002 61 63 0.0 0.0 0.00 0.00 0.00 94 1019.0
20260902031002 62 1 0.0 0.9 0.00 0.00 0.00 95 1019.0
20260902030001 61 271 0.9 1.7 0.00 0.00 0.00 95 1019.0
20260902025002 61 352 0.9 1.7 0.00 0.00 0.00 95 1019.0
20260902024001 61 305 0.9 1.7 0.00 0.00 0.00 94 1019.0
20260902023001 62 292 3.5 3.5 0.00 0.00 0.00 94 1019.0
20260902022002 62 327 1.7 1.7 0.00 0.00 0.00 94 1019.0
20260902021001 62 22 1.7 1.7 0.00 0.00 0.00 95 1019.0
20260902020001 62 348 1.7 2.6 0.00 0.00 0.00 95 1019.0
20260902015002 62 339 1.7 1.7 0.00 0.00 0.00 95 1019.0
20260902014001 62 333 0.9 1.7 0.00 0.00 0.00 95 1019.0
20260902013001 62 322 2.6 3.5 0.00 0.00 0.00 95 1019.0
20260902012002 62 251 1.7 1.7 0.00 0.00 0.00 95 1019.0
20260902011001 62 312 1.7 1.7 0.00 0.00 0.00 95 1019.0
20260902010001 62 230 0.9 1.7 0.00 0.00 0.00 94 1019.0
20260902005002 62 29 0.0 0.9 0.00 0.00 0.00 93 1019.0
20260902004001 62 155 0.0 0.9 0.00 0.00 0.00 92 1019.0
20260902003002 64 349 0.9 0.9 0.00 0.00 0.00 94 1019.0
20260902002001 64 287 1.7 1.7 0.00 0.00 0.00 93 1019.0
20260902001002 64 352 1.7 1.7 0.00 0.00 0.00 93 1019.0
20260902000001 64 302 0.0 0.0 0.00 0.00 0.00 93 1019.0
20260901235002 64 359 0.0 1.7 0.00 0.00 0.00 93 1019.0
20260901234002 64 306 0.0 0.9 0.00 0.00 0.00 93 1019.0
20260901233001 64 300 0.0 0.0 0.00 0.00 0.00 92 1019.0
20260901232002 64 301 0.9 1.7 0.00 0.00 0.00 92 1019.0
20260901231002 64 309 0.0 0.0 0.00 0.00 0.00 91 1019.0
20260901230001 65 37 0.0 0.9 0.00 0.00 0.00 93 1019.0
20260901225002 65 315 0.0 0.0 0.00 0.00 0.00 92 1019.0